Posadas, Argentina

11:29 PM America on February 24, 2017 (GMT +0000)
Liberador Gral D Jose De San M

Weather History for SARP - March, 2013

Change the Weather History Date:

Monday, March 4, 2013

  Actual Average Record
Temperature  
Mean Temperature 71 °F -  
Max Temperature 77 °F 86 °F 96 °F (2009)
Min Temperature 65 °F 66 °F 60 °F (1997)
Cooling Degree Days 6    
Growing Degree Days 21 (Base 50)    
Moisture  
Dew Point 64 °F    
Average Humidity 78    
Maximum Humidity 94    
Minimum Humidity 56    
Precipitation  
Precipitation 0.00 in 0.19 in - ()
Sea Level Pressure  
Sea Level Pressure 29.97 in    
Wind  
Wind Speed 4 mph ()    
Max Wind Speed 13 mph    
Max Gust Speed -    
Visibility 6.9 miles    
Events Rain , Thunderstorm    
Averages and records for this station are not official NWS values.
T = Trace of Precipitation, MM = Missing Value Source: Averaged Metar Reports

Daily Weather History Graph

Daily Weather History Graph

Search for Another Location

Airport or City:

Trip Planner

Search our weather history database for the weather conditions in past years. The results will help you decide how hot, cold, wet, or windy it might be!

Date:

Astronomy

Mar. 04, 2013 Rise Set
Actual Time 6:38 AM ART 7:11 PM ART
Civil Twilight 6:15 AM ART 7:35 PM ART
Nautical Twilight 5:47 AM ART 8:03 PM ART
Astronomical Twilight 5:19 AM ART 8:31 PM ART
Moon No Moon Rise 1:16 PM ART (3/4)
Length of Visible Light 13h 20m
Length of Day
12h 33m
Waning Gibbous, 53% of the Moon is Illuminated
Mar 4
Waning Gibbous
Mar 4
Last Quarter
Mar 11
New
Mar 19
First Quarter
Mar 27
Full

Hourly Weather History & Observations

Time (ART) Temp. Dew Point Humidity Pressure Visibility Wind Dir Wind Speed Gust Speed Precip Events Conditions
12:00 AM 69.8 °F 68.0 °F 94% 29.98 in 3.1 mi Calm Calm - N/A Rain , Thunderstorm Light Thunderstorms and Rain
1:00 AM 68.0 °F 66.2 °F 94% 29.95 in 6.2 mi South 2.3 mph - N/A Rain , Thunderstorm Light Thunderstorms and Rain
2:00 AM 68.0 °F 66.2 °F 94% 29.95 in 6.2 mi South 2.3 mph - N/A Rain , Thunderstorm Light Thunderstorms and Rain
3:00 AM 67 °F 65 °F 89% 29.93 in 12 mi South 2.3 mph - - Thunderstorm Light Thunderstorm
3:00 AM 66.2 °F 64.4 °F 94% 29.95 in 6.2 mi South 2.3 mph - N/A   Overcast
4:00 AM 66.2 °F 64.4 °F 94% 29.95 in 6.2 mi South 2.3 mph - N/A   Overcast
5:00 AM 66.2 °F 64.4 °F 94% 29.98 in 6.2 mi SSE 3.5 mph - N/A   Drizzle
6:00 AM 66.2 °F 62.6 °F 88% 29.98 in 6.2 mi South 5.8 mph - N/A   Overcast
7:00 AM 66.2 °F 62.6 °F 88% 29.98 in 6.2 mi South 6.9 mph - N/A   Mostly Cloudy
8:00 AM 66.2 °F 62.6 °F 88% 30.01 in 6.2 mi South 8.1 mph - N/A   Overcast
9:00 AM 67 °F 64 °F 86% 29.99 in 12 mi SE 5.8 mph - -   Partly Cloudy
9:00 AM 68.0 °F 64.4 °F 88% 30.01 in 6.2 mi SE 5.8 mph - N/A   Overcast
10:00 AM 68.0 °F 62.6 °F 83% 30.01 in 6.2 mi SE 5.8 mph - N/A   Overcast
11:00 AM 69.8 °F 64.4 °F 83% 30.01 in 6.2 mi SE 4.6 mph - N/A   Mostly Cloudy
12:00 PM 73.4 °F 64.4 °F 73% 30.01 in 6.2 mi SE 4.6 mph - N/A   Mostly Cloudy
1:00 PM 75.2 °F 64.4 °F 69% 30.01 in 6.2 mi SE 4.6 mph - N/A   Mostly Cloudy
2:00 PM 77.0 °F 64.4 °F 65% 29.98 in 6.2 mi SE 5.8 mph - N/A   Mostly Cloudy
3:00 PM 76 °F 63 °F 56% 29.93 in 12 mi SE 9.2 mph - -   Mostly Cloudy
3:00 PM 75.2 °F 62.6 °F 65% 29.98 in 6.2 mi SE 9.2 mph - N/A   Mostly Cloudy
4:00 PM 77.0 °F 64.4 °F 65% 29.95 in 6.2 mi SE 9.2 mph - N/A   Mostly Cloudy
5:00 PM 77.0 °F 64.4 °F 65% 29.95 in 6.2 mi SE 4.6 mph - N/A   Mostly Cloudy
6:00 PM 77.0 °F 64.4 °F 65% 29.95 in 6.2 mi SE 3.5 mph - N/A   Mostly Cloudy
7:00 PM 75.2 °F 64.4 °F 69% 29.95 in 6.2 mi South 11.5 mph - N/A   Mostly Cloudy
8:00 PM 73.4 °F 60.8 °F 65% 29.98 in 6.2 mi South 12.7 mph - N/A   Mostly Cloudy
9:00 PM 72 °F 62 °F 63% 29.93 in 12 mi South 12.7 mph - -   Overcast
9:00 PM 71.6 °F 62.6 °F 73% 29.95 in 6.2 mi South 12.7 mph - N/A   Mostly Cloudy
10:00 PM 71.6 °F 60.8 °F 69% 29.98 in 6.2 mi South 9.2 mph - N/A   Overcast
11:00 PM 71.6 °F 59.0 °F 64% 29.98 in 6.2 mi South 9.2 mph - N/A   Overcast